CFG25N LEPA-EDDL

Flight info

Callsign CFG25N
Flight time 1h 55m
Altitude 34000
Route MEROS N853 LUMAS DCT MAXIR DCT LUSOL DCT BODRU DCT OKTET DCT IRMAR DCT KINES DCT VANAS DCT MOBLO DCT UBIMA DCT GILIR DCT PENDU DCT IXILU DCT EPL DCT ROUSY DCT DIK N853 ARCKY T853 NVO T857 BIKMU BIKMU1A
Aircraft A321/M-SDE3FGHIRWY/LB1

Departure

Time 2026-05-04 16:40
Airport Palma de Mallorca Airport (LEPA)

Arrival

Time 2026-05-04 18:36
Airport Düsseldorf Airport (EDDL)
Time Latitude Longitude Altitude Speed Heading
2026-05-04 15:47 39.54947 2.73771 37 ft 0 kts 239°
2026-05-04 16:28 39.54950 2.73777 38 ft 3 kts 239°
2026-05-04 16:28 39.54982 2.73845 36 ft 3 kts 245°
2026-05-04 16:29 39.54956 2.73915 37 ft 0 kts 329°
2026-05-04 16:31 39.54962 2.73911 36 ft 3 kts 329°
2026-05-04 16:32 39.55112 2.73793 38 ft 9 kts 329°
2026-05-04 16:33 39.55200 2.73821 38 ft 6 kts 356°
2026-05-04 16:33 39.55301 2.73752 38 ft 11 kts 328°
2026-05-04 16:34 39.55486 2.73606 36 ft 19 kts 328°
2026-05-04 16:34 39.55584 2.73529 38 ft 10 kts 329°
2026-05-04 16:35 39.55761 2.73725 38 ft 17 kts 58°
2026-05-04 16:35 39.55929 2.74082 38 ft 13 kts 58°
2026-05-04 16:36 39.55978 2.74185 38 ft 14 kts 58°
2026-05-04 16:36 39.56066 2.74371 38 ft 9 kts 58°
2026-05-04 16:37 39.56134 2.74454 38 ft 2 kts
2026-05-04 16:37 39.56135 2.74454 38 ft 0 kts
2026-05-04 16:37 39.56157 2.74450 38 ft 7 kts 346°
2026-05-04 16:38 39.56258 2.74340 38 ft 8 kts 279°
2026-05-04 16:39 39.56250 2.74313 38 ft 0 kts 239°
2026-05-04 16:39 39.56234 2.74279 38 ft 24 kts 239°
2026-05-04 16:40 39.55601 2.72945 39 ft 138 kts 238°
2026-05-04 16:40 39.54459 2.70494 825 ft 162 kts 237°
2026-05-04 16:41 39.53276 2.68004 1614 ft 179 kts 237°
2026-05-04 16:41 39.51132 2.63494 2859 ft 204 kts 238°
2026-05-04 16:42 39.47915 2.59829 3998 ft 245 kts 186°
2026-05-04 16:43 39.44916 2.62040 5117 ft 279 kts 118°
2026-05-04 16:43 39.44318 2.67133 6433 ft 294 kts 94°
2026-05-04 16:43 39.44323 2.69803 7007 ft 300 kts 92°
2026-05-04 16:44 39.44275 2.80858 9535 ft 313 kts 95°
2026-05-04 16:45 39.44084 2.86625 10323 ft 337 kts 96°
2026-05-04 16:46 39.43726 2.96513 10709 ft 393 kts 95°
2026-05-04 16:46 39.43482 3.03682 11715 ft 402 kts 95°
2026-05-04 16:47 39.43242 3.10962 12865 ft 408 kts 94°
2026-05-04 16:47 39.42993 3.18343 13952 ft 414 kts 94°
2026-05-04 16:48 39.44558 3.29383 15252 ft 429 kts 65°
2026-05-04 16:48 39.46003 3.32769 15677 ft 432 kts 58°
2026-05-04 16:49 39.49116 3.39498 16517 ft 439 kts 58°
2026-05-04 16:49 39.52265 3.46360 17347 ft 447 kts 58°
2026-05-04 16:50 39.55458 3.53331 18225 ft 452 kts 58°
2026-05-04 16:50 39.58682 3.60396 18934 ft 459 kts 58°
2026-05-04 16:51 39.61949 3.67575 19584 ft 466 kts 58°
2026-05-04 16:51 39.63606 3.71215 19916 ft 469 kts 58°
2026-05-04 16:51 39.66952 3.78562 20566 ft 476 kts 59°
2026-05-04 16:52 39.70336 3.86024 21227 ft 483 kts 59°
2026-05-04 16:52 39.72044 3.89800 21559 ft 486 kts 59°
2026-05-04 16:53 39.75485 3.97425 22242 ft 492 kts 59°
2026-05-04 16:53 39.80721 4.09053 23188 ft 501 kts 59°
2026-05-04 16:54 39.82592 4.12822 23480 ft 504 kts 51°
2026-05-04 16:55 39.93823 4.23140 24476 ft 496 kts 12°
2026-05-04 16:55 40.00547 4.24947 24997 ft 494 kts
2026-05-04 16:56 40.07351 4.26535 25463 ft 499 kts
2026-05-04 16:56 40.17679 4.28987 26145 ft 507 kts
2026-05-04 16:57 40.21159 4.29812 26386 ft 509 kts
2026-05-04 16:57 40.28173 4.31465 26837 ft 514 kts
2026-05-04 16:58 40.38761 4.33977 27729 ft 516 kts
2026-05-04 16:58 40.42244 4.34809 28062 ft 516 kts
2026-05-04 16:59 40.49312 4.36499 28683 ft 516 kts
2026-05-04 17:00 40.63486 4.39880 29833 ft 517 kts
2026-05-04 17:00 40.74091 4.42417 30573 ft 519 kts
2026-05-04 17:01 40.81181 4.44130 31152 ft 517 kts
2026-05-04 17:01 40.88248 4.45837 31761 ft 515 kts
2026-05-04 17:02 40.94103 4.47244 32235 ft 514 kts
2026-05-04 17:02 41.01129 4.48947 32801 ft 512 kts
2026-05-04 17:03 41.04635 4.49798 33114 ft 512 kts
2026-05-04 17:03 41.08129 4.50645 33425 ft 510 kts
2026-05-04 17:03 41.15101 4.52341 33894 ft 509 kts
2026-05-04 17:04 41.28994 4.55756 33922 ft 506 kts
2026-05-04 17:05 41.42841 4.59127 33927 ft 506 kts
2026-05-04 17:06 41.53236 4.61700 33946 ft 506 kts
2026-05-04 17:07 41.62444 4.63981 33940 ft 505 kts
2026-05-04 17:07 41.70483 4.66046 33957 ft 508 kts 10°
2026-05-04 17:08 41.80160 4.72157 33925 ft 517 kts 28°
2026-05-04 17:09 41.86332 4.77142 33930 ft 517 kts 28°
2026-05-04 17:09 41.92471 4.82070 33943 ft 517 kts 28°
2026-05-04 17:10 42.07885 4.94512 33944 ft 516 kts 28°
2026-05-04 17:11 42.14032 4.99511 33946 ft 516 kts 28°
2026-05-04 17:12 42.23247 5.07022 33966 ft 515 kts 28°
2026-05-04 17:13 42.38565 5.19551 33966 ft 514 kts 28°
2026-05-04 17:14 42.50786 5.29609 34000 ft 514 kts 28°
2026-05-04 17:15 42.59949 5.37164 33982 ft 513 kts 28°
2026-05-04 17:16 42.72106 5.47250 33980 ft 513 kts 28°
2026-05-04 17:17 42.84282 5.57403 33992 ft 513 kts 28°
2026-05-04 17:18 42.96427 5.67585 34016 ft 511 kts 28°
2026-05-04 17:19 43.08505 5.77720 34029 ft 510 kts 28°
2026-05-04 17:20 43.20585 5.87932 34035 ft 509 kts 28°
2026-05-04 17:20 43.29616 5.95604 34054 ft 509 kts 28°
2026-05-04 17:21 43.42169 6.03974 34047 ft 495 kts
2026-05-04 17:22 43.48931 6.04984 34052 ft 487 kts 358°
2026-05-04 17:23 43.62443 6.06353 34051 ft 486 kts 358°
2026-05-04 17:24 43.72505 6.07398 34060 ft 485 kts 359°
2026-05-04 17:24 43.82301 6.11325 34042 ft 498 kts 22°
2026-05-04 17:25 43.85405 6.13455 34041 ft 498 kts 22°
2026-05-04 17:26 43.97812 6.21927 34059 ft 496 kts 22°
2026-05-04 17:27 44.13235 6.32513 34076 ft 494 kts 23°
2026-05-04 17:28 44.25538 6.40994 34092 ft 493 kts 23°
2026-05-04 17:29 44.43885 6.53730 34098 ft 492 kts 23°
2026-05-04 17:31 44.59182 6.64412 34119 ft 491 kts 23°
2026-05-04 17:32 44.74451 6.75118 34134 ft 490 kts 22°
2026-05-04 17:33 44.84135 6.78653 34148 ft 474 kts 356°
2026-05-04 17:33 44.87408 6.78557 34144 ft 469 kts 352°
2026-05-04 17:34 45.00428 6.77697 34156 ft 470 kts 353°
2026-05-04 17:35 45.16754 6.76622 34144 ft 470 kts 352°
2026-05-04 17:36 45.23284 6.76183 34140 ft 470 kts 352°
2026-05-04 17:36 45.29814 6.75740 34121 ft 470 kts 352°
2026-05-04 17:37 45.36353 6.75306 34108 ft 470 kts 352°
2026-05-04 17:37 45.42896 6.74873 34112 ft 471 kts 352°
2026-05-04 17:38 45.49439 6.74436 34109 ft 470 kts 352°
2026-05-04 17:38 45.55978 6.73994 34099 ft 470 kts 353°
2026-05-04 17:39 45.65790 6.73309 34076 ft 471 kts 352°
2026-05-04 17:39 45.72319 6.72859 34073 ft 470 kts 352°
2026-05-04 17:40 45.78829 6.72421 34080 ft 471 kts 352°
2026-05-04 17:40 45.85382 6.71978 34063 ft 471 kts 352°
2026-05-04 17:41 45.91944 6.71524 34074 ft 472 kts 352°
2026-05-04 17:41 45.98518 6.71073 34060 ft 473 kts 352°
2026-05-04 17:42 46.05105 6.70625 34051 ft 474 kts 353°
2026-05-04 17:42 46.11676 6.70024 34042 ft 470 kts 346°
2026-05-04 17:43 46.17908 6.67558 34045 ft 462 kts 336°
2026-05-04 17:43 46.24011 6.64586 34027 ft 463 kts 336°
2026-05-04 17:44 46.30131 6.61605 34032 ft 465 kts 336°
2026-05-04 17:44 46.36219 6.58642 34032 ft 464 kts 336°
2026-05-04 17:45 46.42336 6.55648 34037 ft 464 kts 336°
2026-05-04 17:45 46.48470 6.52649 34037 ft 465 kts 336°
2026-05-04 17:46 46.54619 6.49634 34036 ft 466 kts 336°
2026-05-04 17:46 46.60761 6.46602 34055 ft 466 kts 336°
2026-05-04 17:47 46.66909 6.43569 34039 ft 467 kts 336°
2026-05-04 17:47 46.73068 6.40512 34028 ft 468 kts 336°
2026-05-04 17:48 46.79196 6.37464 34040 ft 469 kts 336°
2026-05-04 17:48 46.85392 6.34394 34024 ft 469 kts 337°
2026-05-04 17:49 46.90527 6.31835 34025 ft 469 kts 336°
2026-05-04 17:49 46.96706 6.28739 34027 ft 469 kts 336°
2026-05-04 17:50 47.02887 6.25636 34039 ft 469 kts 336°
2026-05-04 17:50 47.08908 6.22076 34012 ft 465 kts 329°
2026-05-04 17:51 47.14713 6.17894 34032 ft 465 kts 329°
2026-05-04 17:51 47.20530 6.13690 34021 ft 465 kts 329°
2026-05-04 17:52 47.26312 6.09499 34008 ft 466 kts 329°
2026-05-04 17:52 47.32200 6.05414 34001 ft 471 kts 336°
2026-05-04 17:53 47.38660 6.03432 33999 ft 480 kts 354°
2026-05-04 17:53 47.45359 6.03505 34004 ft 482 kts 358°
2026-05-04 17:54 47.52076 6.03650 34006 ft 483 kts 358°
2026-05-04 17:54 47.58800 6.03793 34004 ft 483 kts 358°
2026-05-04 17:55 47.65530 6.03944 34003 ft 484 kts 358°
2026-05-04 17:55 47.72265 6.04107 34001 ft 484 kts 359°
2026-05-04 17:56 47.78956 6.04271 34002 ft 484 kts 359°
2026-05-04 17:56 47.85692 6.04486 34027 ft 484 kts 359°
2026-05-04 17:57 47.92424 6.04711 34019 ft 484 kts 359°
2026-05-04 17:57 47.99160 6.04924 34014 ft 484 kts 359°
2026-05-04 17:58 48.05900 6.05128 34007 ft 484 kts 359°
2026-05-04 17:58 48.12634 6.05335 33993 ft 484 kts 359°
2026-05-04 17:59 48.19385 6.05561 33986 ft 485 kts 359°
2026-05-04 18:00 48.29486 6.05885 33986 ft 486 kts 359°
2026-05-04 18:00 48.36264 6.06105 33979 ft 488 kts 359°
2026-05-04 18:01 48.43063 6.06442 33985 ft 489 kts 360°
2026-05-04 18:01 48.49827 6.06805 33991 ft 489 kts 359°
2026-05-04 18:02 48.60045 6.07286 34005 ft 491 kts 359°
2026-05-04 18:02 48.66875 6.07598 34001 ft 491 kts 359°
2026-05-04 18:03 48.73699 6.07919 34000 ft 491 kts 359°
2026-05-04 18:03 48.80530 6.08251 34001 ft 491 kts 359°
2026-05-04 18:04 48.87359 6.08580 34004 ft 491 kts 359°
2026-05-04 18:05 48.97613 6.09071 33999 ft 491 kts 359°
2026-05-04 18:05 49.04452 6.09398 33992 ft 492 kts 359°
2026-05-04 18:06 49.14688 6.09892 33993 ft 493 kts 359°
2026-05-04 18:06 49.21547 6.10223 33981 ft 493 kts 359°
2026-05-04 18:07 49.28404 6.10561 33994 ft 493 kts 359°
2026-05-04 18:07 49.35273 6.10894 33990 ft 494 kts 359°
2026-05-04 18:08 49.42140 6.11233 33990 ft 493 kts 359°
2026-05-04 18:08 49.48996 6.11580 33982 ft 493 kts 359°
2026-05-04 18:09 49.62672 6.12079 33977 ft 492 kts 358°
2026-05-04 18:10 49.69514 6.12325 33982 ft 492 kts 359°
2026-05-04 18:10 49.76352 6.12598 33988 ft 492 kts 359°
2026-05-04 18:11 49.83200 6.12869 34001 ft 491 kts 359°
2026-05-04 18:11 49.90023 6.13084 34003 ft 490 kts 358°
2026-05-04 18:12 49.96842 6.13102 34006 ft 490 kts 357°
2026-05-04 18:12 50.03658 6.13082 34006 ft 490 kts 357°
2026-05-04 18:13 50.10479 6.13106 33998 ft 490 kts 357°
2026-05-04 18:14 50.20660 6.13166 33992 ft 489 kts 357°
2026-05-04 18:14 50.24068 6.13189 33780 ft 490 kts 358°
2026-05-04 18:14 50.27471 6.13656 33497 ft 493 kts
2026-05-04 18:15 50.33911 6.17365 32948 ft 497 kts 31°
2026-05-04 18:15 50.39754 6.23313 31350 ft 507 kts 34°
2026-05-04 18:15 50.42710 6.26358 30450 ft 511 kts 34°
2026-05-04 18:16 50.45710 6.29450 29313 ft 518 kts 34°
2026-05-04 18:16 50.48734 6.32568 28301 ft 520 kts 34°
2026-05-04 18:16 50.51749 6.35602 27220 ft 522 kts 32°
2026-05-04 18:17 50.58019 6.41416 25407 ft 513 kts 29°
2026-05-04 18:17 50.61062 6.44124 24562 ft 505 kts 29°
2026-05-04 18:17 50.67031 6.49474 23130 ft 483 kts 29°
2026-05-04 18:18 50.69900 6.52104 22502 ft 471 kts 30°
2026-05-04 18:18 50.72697 6.54701 22099 ft 460 kts 30°
2026-05-04 18:18 50.75409 6.57239 21802 ft 446 kts 30°
2026-05-04 18:18 50.78043 6.59708 21537 ft 434 kts 30°
2026-05-04 18:19 50.83458 6.63651 19952 ft 436 kts 14°
2026-05-04 18:19 50.86431 6.64547 19230 ft 435 kts
2026-05-04 18:19 50.89430 6.65132 18601 ft 432 kts
2026-05-04 18:20 50.92399 6.65753 17983 ft 429 kts
2026-05-04 18:20 50.95340 6.66398 17324 ft 425 kts
2026-05-04 18:20 50.98267 6.67049 16691 ft 422 kts
2026-05-04 18:20 51.01161 6.67676 16076 ft 419 kts
2026-05-04 18:21 51.04059 6.67816 15473 ft 414 kts 356°
2026-05-04 18:21 51.06931 6.67591 14865 ft 412 kts 358°
2026-05-04 18:21 51.09757 6.68147 14290 ft 409 kts 17°
2026-05-04 18:21 51.12247 6.70081 13970 ft 399 kts 37°
2026-05-04 18:22 51.14372 6.72932 13515 ft 393 kts 43°
2026-05-04 18:22 51.16388 6.75826 13025 ft 388 kts 43°
2026-05-04 18:22 51.18356 6.78664 12517 ft 384 kts 43°
2026-05-04 18:22 51.20324 6.81508 12009 ft 380 kts 43°
2026-05-04 18:23 51.22274 6.84330 11495 ft 377 kts 43°
2026-05-04 18:23 51.24207 6.87129 10987 ft 374 kts 43°
2026-05-04 18:23 51.26128 6.89919 10487 ft 371 kts 44°
2026-05-04 18:23 51.27829 6.92901 10295 ft 353 kts 52°
2026-05-04 18:24 51.29306 6.95873 10172 ft 331 kts 53°
2026-05-04 18:24 51.30687 6.98674 10047 ft 311 kts 53°
2026-05-04 18:24 51.32008 7.01349 9756 ft 302 kts 53°
2026-05-04 18:24 51.33303 7.03973 9461 ft 299 kts 53°
2026-05-04 18:25 51.34589 7.06580 9089 ft 297 kts 53°
2026-05-04 18:25 51.35865 7.09169 8741 ft 296 kts 53°
2026-05-04 18:25 51.37137 7.11737 8439 ft 292 kts 50°
2026-05-04 18:25 51.38716 7.13695 8018 ft 287 kts 24°
2026-05-04 18:26 51.40642 7.14335 7485 ft 284 kts 356°
2026-05-04 18:26 51.42524 7.13535 6954 ft 280 kts 330°
2026-05-04 18:26 51.44184 7.11893 6531 ft 281 kts 324°
2026-05-04 18:26 51.45799 7.10141 6166 ft 280 kts 323°
2026-05-04 18:27 51.47401 7.08384 5799 ft 278 kts 323°
2026-05-04 18:27 51.49138 7.07069 5463 ft 277 kts 348°
2026-05-04 18:27 51.50986 7.07160 5307 ft 267 kts 17°
2026-05-04 18:27 51.52549 7.08606 5124 ft 256 kts 48°
2026-05-04 18:28 51.53404 7.10981 5043 ft 244 kts 79°
2026-05-04 18:28 51.53361 7.13617 5014 ft 236 kts 112°
2026-05-04 18:28 51.52469 7.15752 5019 ft 230 kts 144°
2026-05-04 18:28 51.51033 7.16737 5021 ft 226 kts 176°
2026-05-04 18:29 51.49499 7.16364 4901 ft 225 kts 200°
2026-05-04 18:29 51.48047 7.15430 4646 ft 224 kts 206°
2026-05-04 18:29 51.46827 7.13909 4372 ft 224 kts 230°
2026-05-04 18:29 51.45880 7.11915 4129 ft 225 kts 232°
2026-05-04 18:30 51.44027 7.07950 4008 ft 210 kts 232°
2026-05-04 18:30 51.43155 7.06096 4018 ft 209 kts 232°
2026-05-04 18:30 51.42310 7.04302 4027 ft 191 kts 231°
2026-05-04 18:31 51.41535 7.02656 3930 ft 184 kts 232°
2026-05-04 18:31 51.40766 7.01027 3734 ft 183 kts 231°
2026-05-04 18:31 51.39994 6.99391 3504 ft 183 kts 231°
2026-05-04 18:31 51.39226 6.97764 3259 ft 183 kts 231°
2026-05-04 18:32 51.38454 6.96131 3001 ft 184 kts 231°
2026-05-04 18:32 51.37683 6.94499 2773 ft 184 kts 231°
2026-05-04 18:32 51.36912 6.92868 2526 ft 184 kts 232°
2026-05-04 18:32 51.36145 6.91249 2279 ft 181 kts 232°
2026-05-04 18:33 51.35390 6.89654 2035 ft 177 kts 231°
2026-05-04 18:33 51.34667 6.88126 1800 ft 167 kts 231°
2026-05-04 18:33 51.33988 6.86694 1612 ft 153 kts 231°
2026-05-04 18:33 51.33363 6.85384 1386 ft 146 kts 230°
2026-05-04 18:34 51.32754 6.84102 1165 ft 147 kts 231°
2026-05-04 18:34 51.32138 6.82802 964 ft 146 kts 229°
2026-05-04 18:34 51.31528 6.81510 783 ft 145 kts 229°
2026-05-04 18:34 51.30915 6.80218 588 ft 145 kts 230°
2026-05-04 18:35 51.30306 6.78939 389 ft 145 kts 231°
2026-05-04 18:35 51.29692 6.77657 182 ft 146 kts 230°
2026-05-04 18:35 51.29126 6.76458 132 ft 108 kts 232°
2026-05-04 18:35 51.28809 6.75797 128 ft 59 kts 232°
2026-05-04 18:36 51.28575 6.75305 122 ft 53 kts 233°
2026-05-04 18:36 51.28420 6.74979 116 ft 21 kts 230°
2026-05-04 18:36 51.28355 6.74939 120 ft 15 kts 166°
2026-05-04 18:36 51.28277 6.74999 120 ft 12 kts 154°
2026-05-04 18:37 51.28209 6.75053 121 ft 10 kts 153°
2026-05-04 18:37 51.28147 6.75103 119 ft 9 kts 153°
2026-05-04 18:37 51.28111 6.75132 120 ft 1 kts 153°
2026-05-04 18:37 51.28108 6.75134 121 ft 0 kts 153°
2026-05-04 18:39 51.28105 6.75136 121 ft 3 kts 153°
2026-05-04 18:39 51.28064 6.75169 122 ft 10 kts 153°
2026-05-04 18:39 51.27999 6.75221 123 ft 10 kts 153°
2026-05-04 18:40 51.27940 6.75269 121 ft 9 kts 153°
2026-05-04 18:40 51.27887 6.75312 123 ft 7 kts 153°
2026-05-04 18:40 51.27868 6.75327 120 ft 1 kts 153°
2026-05-04 18:40 51.27865 6.75330 120 ft 0 kts 153°
2026-05-04 18:42 51.27864 6.75330 120 ft 1 kts 153°
2026-05-04 18:42 51.27844 6.75349 124 ft 6 kts 143°
2026-05-04 18:42 51.27845 6.75423 123 ft 9 kts 58°
2026-05-04 18:43 51.27889 6.75517 125 ft 12 kts 53°
2026-05-04 18:43 51.27948 6.75642 127 ft 14 kts 53°
2026-05-04 18:43 51.27984 6.75718 127 ft 0 kts 52°
2026-05-04 18:45 51.27988 6.75725 127 ft 2 kts 52°
2026-05-04 18:45 51.27999 6.75772 127 ft 6 kts 89°
2026-05-04 18:45 51.27956 6.75819 127 ft 9 kts 178°
2026-05-04 18:45 51.27882 6.75816 129 ft 13 kts 181°
2026-05-04 18:46 51.27780 6.75812 129 ft 16 kts 181°
2026-05-04 18:46 51.27685 6.75809 128 ft 13 kts 181°
2026-05-04 18:46 51.27619 6.75828 127 ft 7 kts 154°
2026-05-04 18:46 51.27581 6.75858 125 ft 4 kts 153°
2026-05-04 18:47 51.27576 6.75885 129 ft 2 kts 81°
2026-05-04 18:47 51.27584 6.75912 127 ft 3 kts 65°
2026-05-04 18:47 51.27593 6.75939 130 ft 3 kts 63°
2026-05-04 18:47 51.27598 6.75955 129 ft 0 kts 63°